Location: Friaudour
(46.0460°N, 1.2873°E)
Time: 00:43:52
(UTC+00:00)

Cosmos 1900 - Visible Passes

Search period start: 24 October 2020 00:00
Search period end: 03 November 2020 00:00
Orbit: 679 x 743 km, 66.1° (Epoch: 23 October)

Date Brightness Start Highest point End Pass type
(mag) Time Alt. Az. Time Alt. Az. Time Alt. Az.
24 Oct 6.9 03:39:23 11° N 03:39:23 11° N 03:40:00 10° N visible
29 Oct 6.8 05:52:56 10° N 05:56:04 16° NNE 05:59:11 10° ENE visible
30 Oct 7.0 04:59:06 10° N 05:00:23 11° NNE 05:01:41 10° NE visible
31 Oct 6.6 05:44:40 10° NNW 05:48:29 20° NE 05:52:15 10° E visible
01 Nov 6.9 04:50:27 10° N 04:52:55 13° NNE 04:55:22 10° NE visible
02 Nov 6.3 05:36:29 10° NNW 05:40:49 26° NE 05:45:06 10° E visible
